sat.trackr.live / text

‹ back to catalog

STARLINK-36330

NORAD 67737 · 2026-026S

PAYLOAD ACTIVE UNKNOWN

§ Identity

Operator
Country
US
Launch date
2026-02-11
Launch site
AFWTR
Launch vehicle
Mass (kg)
RCS (m²)

Purposes: comms

External: N2YO · Heavens-Above · Gunter

§ Orbital elements

Epoch: 2026-05-25T03:14:06.773568Z

Period
93.91 min
Inclination
97.2853°
Eccentricity
0.0000970
Mean motion
15.33454996 rev/d
Perigee alt
464.8 km
Apogee alt
466.2 km
Semi-major
6,843.7 km
B*
4.3165e-4
RAAN
198.6962°
Arg perigee
102.3881°
Mean anomaly
257.7470°
Rev number
1,584

§ Raw data

STARLINK-363301 67737U 26026S   26145.13480062  .00013890  00000+0  43165-3 0  99902 67737  97.2853 198.6962 0000970 102.3881 257.7470 15.33454996 15845

JSON: /api/v1/satellites/67737 · /tle

For live sub-satellite position, see the globe view (requires WebGL).

§ Visibility from observer

Set your observer location to see the next 7 days of passes ≥ 10°. The values pass through the URL so the page stays shareable.

No JS? Fill the form by hand. The geolocation button needs JavaScript.